Tracking 17636 objects as of 29-April-2016
HD Live streaming from Space Station
objects crossing your sky now

YAOGAN 14

Track YAOGAN 14 now!
10-day predictions
YAOGAN 14 is classified as:


NORAD ID: 38257
Int'l Code: 2012-021A
Perigee: 478.1 km
Apogee: 487.8 km
Inclination: 97.4 °
Period: 94.1 minutes
Semi major axis: 6853 km
RCS: 5.8167 m2 (large)
Launch date: May 10, 2012
Source: People's Republic of China (PRC)
Launch site: Taiyaun Space Center, China (TSC)

YAOGAN 14 (Remote Sensing Satellite 14) is an optical reconnaisance satellite.
Your satellite tracking list
Your tracking list is empty





NASA's NSSDC Master Catalog

Two Line Element Set (TLE):
1 38257U 12021A   16120.08196128  .00002894  00000-0  10188-3 0  9990
2 38257  97.4046 251.5793 0007046  13.9221 103.0324 15.30118546221736
Source of the keplerian elements: AFSPC

N2YO: 377